Regional Weather Roundup
Issued by NWS Charleston, SC

Current Version | Previous Version | Graphics & Text | Print | Product List | Glossary On
Versions: 1 2 3 4 5 6 7 8 9 10 11 12 13 14 15 16 17 18 19 20 21 22 23 24 25 26 27 28 29 30 31 32 33 34 35 36 37 38 39 40 41 42 43 44 45 46 47 48 49 50
194 ASUS42 KCHS 140711 RWRCHS REGIONAL WEATHER ROUNDUP NATIONAL WEATHER SERVICE CHARLESTON SC 200 AM EST THU DEC 14 2017 NOTE: "FAIR" INDICATES FEW OR NO CLOUDS BELOW 12,000 FEET WITH NO SIGNIFICANT WEATHER AND/OR OBSTRUCTIONS TO VISIBILITY. NOT ALL STATIONS ARE QUALITY CONTROLLED. USE DATA WITH CAUTION... ESPECIALLY DEWPOINT OBSERVATIONS. SCZ027-030-031-034>040-042>050-140800- ...SOUTHEAST SOUTH CAROLINA... CITY SKY/WX TMP DP RH WIND PRES REMARKS N CHARLESTON CLEAR 41 28 60 SW8 29.90S WATERFRONT PRK N/A 46 30 53 SW6 29.75S JOHNS ISLAND FAIR 45 28 53 SW8 29.91S PINOPOLIS N/A 45 30 57 SW14 29.79F MONCKS CORNER FAIR 43 21 42 SW8 29.88R SUMMERVILLE FAIR 34 30 86 S3 29.90S BEAUFORT MCAS CLEAR 42 30 62 SW8 29.91S BEAUFORT ARPT FAIR 43 30 61 SW8 29.91S HILTON HEAD IS CLEAR 46 28 49 SW9G18 29.93S WALTERBORO SUNNY 37 27 65 SW7 29.90S WCI 32 ALLENDALE FAIR 39 25 56 CALM 29.88S ...SOUTHERN MIDLANDS AND PEE DEE... CITY SKY/WX TMP DP RH WIND PRES REMARKS GEORGETOWN FAIR 41 28 60 SW9 29.88S KINGSTREE FAIR 39 25 56 S5 29.84S WCI 36 ORANGEBURG CLEAR 35 25 66 SW8 29.86S WCI 29 BARNWELL N/A 41 23 48 SW6 29.87S AIKEN FAIR 36 21 55 SW5 29.87S WCI 32 MANNING FAIR 45 -15 8 MISG 29.85S COLUMBIA CLEAR 38 23 55 SW8 29.82F WCI 32 SUMTER CLEAR 44 19 37 SW23 29.79F FLORENCE CLEAR 39 24 55 SW9 29.80F WCI 33 MYRTLE BEACH CLEAR 44 25 47 SW14G20 29.86S N MYRTLE BEACH CLEAR 45 25 45 SW15G23 29.83F $$ GAZ063-065-086>088-099>101-113>116-118-119-134>141-150-140800- ...SOUTHEAST GEORGIA... CITY SKY/WX TMP DP RH WIND PRES REMARKS SAVANNAH ARPT CLEAR 42 28 57 SW10 29.94R HUNTER AAF CLEAR 43 29 58 SW12 29.93R FORT STEWART CLEAR 39 29 69 SW3 29.93R STATESBORO CLEAR 44 21 40 W8 29.92R SYLVANIA SUNNY 42 27 57 W5 29.91R CLAXTON FAIR 40 32 73 CALM 29.93S ...CSRA...CENTRAL AND FAR SOUTHEAST GEORGIA... CITY SKY/WX TMP DP RH WIND PRES REMARKS THOMSON CLEAR 40 21 47 W7 29.90S WCI 35 AUGUSTA-BUSH CLEAR 42 22 44 SW8 29.86F AUGUSTA-DANIEL CLEAR 45 22 40 SW6 29.85F SWAINSBORO FAIR 41 28 60 W7 29.92R VIDALIA CLEAR 43 32 65 W6 29.94R EASTMAN FAIR 45 24 43 W5 29.97R HAZLEHURST FAIR 45 27 49 SW3 29.94S ALMA CLOUDY 41 33 73 W3 29.96R WAYCROSS CLOUDY 42 34 72 SW8 29.96S JESUP NOT AVBL BAXLEY FAIR 41 32 70 SW5 29.95R BRUNSWICK CLOUDY 43 32 65 SW7 29.97S SAINT SIMONS CLOUDY 45 35 68 SW12 29.96S $$ SCZ027-028-034-036>038-045-046-048>050-GAZ119-141-140800- ...LAKE AND SUPPLEMENTAL COASTAL OBSERVATIONS... STATION/POSITION TIME TEMP WIND PRES WAVE SWELL AIR SEA DIR/SP/G HT/PER HT/PER/DIR (UTC) (F) (DEG/KT/KT) (MB) (FT/S) (FT/S/D) WINYAH BAY NOT AVBL LAKE MURRAY 0620 45 240/ 11/ 21 1008.8 ACE BASIN NERRS 0545 44 CALM 1013.0 FORT PULASKI 0624 45 54 250/ 5/ 8 1013.7 SAPELO ISLAND 0600 47 230/ 13 1014.0 $$ ANZ835-935-AMZ111-154-330-350-352-354-370-450-454-472-140800- ...C-MAN AND BUOY OBSERVATIONS... STATION/POSITION TIME TEMP WIND PRES WAVE SWELL AIR SEA DIR/SP/G HT/PER HT/PER/DIR (UTC) (F) (DEG/KT/KT) (MB) (FT/S) (FT/S/D) BUOY 41004 0650 73 260/ 27/ 33 1011.7S 7/ 6 2/160/10 BUOY 41008 0650 53 58 230/ 21/ 25 1013.6F 4/ 5 FOLLY BEACH CMAN 0600 47 250/ 7/ 9 1013.0F CAPERS NEARSHORE 0608 49 56 260/ 21/ 27 1011.6F FRIPP NEARSHORE 0608 50 56 220/ 27/ 39 1012.6F STATION/POSITION TIME TEMP WIND PRES WAVE SWELL AIR SEA DIR/SP/G HT/PER HT/PER/DIR (UTC) (F) (DEG/KT/KT) (MB) (FT/S) (FT/S/D) 5E ST. MARYS GA 0630 62 N/A 2/ 3 FRYING PAN BUOY 0650 58 64 250/ 27/ 35 1010.2F 7/ 6 BUOY 41025 0650 60 74 240/ 29/ 37 1008.0F 7/ 6 2/100/11 CAPE LOOKOUT NC 0600 250/ 25/ 27 1009.1F BUOY 41002 0550 65 74 240/ 19/ 23 1012.0 7/10 5/360/10 BUOY 41010 NOT AVBL ST AUGUSTINE FL 0700 44 62 220/ 6/ 8 1016.8R $$

USA.gov is the U.S. government's official web portal to all federal, state and local government web resources and services.